This is the latest recevied weather packets stored in our database for station/object DL0BB-10. If no packets are shown the sender has not sent any weather packets the latest 10 day(s).
| Time | Temp. | Humidity | Pressure | Rain* | Wind** | Luminosity | Snow |
|---|---|---|---|---|---|---|---|
| 1788180284 | 26.11° C | 41% | 1017.8 hPa | - | - | - | - |
| 1788179402 | 26.11° C | 41% | 1017.7 hPa | - | - | - | - |
| 1788178484 | 26.11° C | 41% | 1017.6 hPa | - | - | - | - |
| 1788177584 | 26.67° C | 40% | 1017.8 hPa | - | - | - | - |
| 1788176684 | 26.11° C | 41% | 1017.7 hPa | - | - | - | - |
| 1788175785 | 26.11° C | 42% | 1018 hPa | - | - | - | - |
| 1788174884 | 26.11° C | 41% | 1018 hPa | - | - | - | - |
| 1788173984 | 26.67° C | 40% | 1017.9 hPa | - | - | - | - |
| 1788173083 | 25.56° C | 42% | 1017.9 hPa | - | - | - | - |
| 1788172183 | 25.56° C | 42% | 1017.9 hPa | - | - | - | - |
| 1788171283 | 26.11° C | 41% | 1018 hPa | - | - | - | - |
| 1788170383 | 26.67° C | 40% | 1018 hPa | - | - | - | - |
| 1788169483 | 25.56° C | 42% | 1018 hPa | - | - | - | - |
| 1788168583 | 25.56° C | 42% | 1017.9 hPa | - | - | - | - |
| 1788167683 | 26.11° C | 41% | 1017.9 hPa | - | - | - | - |
| 1788166783 | 26.11° C | 41% | 1018.1 hPa | - | - | - | - |
| 1788165885 | 25.56° C | 42% | 1018.1 hPa | - | - | - | - |
| 1788164985 | 25.56° C | 42% | 1018 hPa | - | - | - | - |
| 1788164085 | 26.11° C | 40% | 1017.9 hPa | - | - | - | - |
| 1788163185 | 25.56° C | 41% | 1017.8 hPa | - | - | - | - |
| 1788162285 | 25° C | 42% | 1017.8 hPa | - | - | - | - |
| 1788161385 | 25.56° C | 42% | 1017.7 hPa | - | - | - | - |
| 1788160485 | 26.11° C | 40% | 1017.7 hPa | - | - | - | - |
| 1788159585 | 25.56° C | 42% | 1017.6 hPa | - | - | - | - |
| 1788158685 | 25.56° C | 42% | 1017.6 hPa | - | - | - | - |
* Rain since midnight (hover to see other rain measurements)
** Current wind speed in m/s (hover to see current wind gust speed)